SCP
0 0 0 0 0 0 0 0 0 0 0 0 0 0 0 0 0 0 0 -0 -0 -0 -0 -0 0 0 0 0 0 0 0 0 0 0 0 0 0 0 1 1 1 0 0 0
0 0 0 0 0 0 0 0 0 0 0 0 0 0 0 0 0 0 -0 -0 -0 -0 -0 -0 -0 0 0 0 0 0 0 0 0 0 0 0 1 1 1 1 1 1 0 0
0 0 0 0 0 0 0 0 0 0 0 0 0 0 0 0 0 0 0 -0 -0 -0 -0 0 0 0 -0 0 0 0 0 1 1 1 1 1 1 1 1 1 1 0 0 0
0 0 0 0 0 0 -0 -0 0 0 0 0 -0 0 0 0 0 0 0 0 0 0 0 0 1 1 1 1 1 1 1 1 1 1 1 1 1 1 1 1 1 1 1 0
0 0 0 0 0 0 0 0 0 0 0 0 0 0 0 0 0 0 0 0 0 1 1 1 1 1 1 1 0 0 0 0 0 0 0 0 0 0 1 1 0 0 0 0
0 0 0 0 0 0 0 0 0 0 0 0 0 1 0 0 0 1 1 0 1 1 1 1 1 1 0 0 0 0 0 0 0 0 0 0 0 0 0 0 0 0 0 0
0 0 0 0 0 0 0 0 0 0 0 0 0 0 0 0 1 1 0 0 0 0 1 0 0 0 0 0 0 0 0 0 0 0 0 0 0 0 0 0 0 0 0 0
0 0 0 0 0 0 0 0 0 0 0 0 0 0 0 0 1 0 0 0 0 0 0 0 0 0 0 0 0 0 0 0 0 0 0 0 0 0 0 0 0 0 0 0
0 0 0 0 0 0 0 0 0 0 0 0 0 0 0 0 0 0 0 0 0 0 0 0 0 0 0 0 0 0 0 0 0 0 0 0 0 0 0 0 0 0 0 0
0 0 0 0 0 0 0 0 0 0 0 0 0 0 0 0 0 0 0 0 0 0 0 0 0 0 0 0 0 0 0 0 0 0 0 0 0 0 0 0 0 0 0 0
0 0 0 0 0 0 0 0 0 0 0 0 0 0 0 0 0 0 0 0 0 0 0 0 0 0 0 0 0 0 0 0 0 0 0 0 0 0 0 0 0 0 0 0
0 0 0 0 0 0 0 0 0 0 0 0 0 0 -0 -0 -0 0 0 0 0 0 0 0 0 0 0 0 0 0 0 0 0 0 0 0 0 0 0 0 0 0 0 0
0 0 0 0 0 0 0 0 0 0 0 0 0 0 0 0 0 0 0 0 0 0 0 0 0 0 0 0 0 0 0 0 0 0 0 0 0 0 0 0 0 0 0 0
0 0 0 0 0 0 0 0 0 0 0 0 0 0 0 0 0 0 0 0 0 0 0 0 0 0 0 0 0 0 0 0 0 0 0 0 0 0 0 0 0 0 0 0
0 0 0 0 0 0 0 0 0 0 0 0 0 0 0 0 0 0 0 0 0 0 0 0 0 0 0 0 0 0 0 0 0 0 0 0 0 0 0 0 0 0 0 0
0 0 0 0 0 0 0 0 0 0 0 0 0 0 0 0 0 0 0 0 0 0 0 0 0 0 0 0 0 0 0 0 0 0 0 0 0 0 0 0 0 0 0 0
0 0 0 0 0 0 0 0 0 0 0 0 0 0 0 0 0 0 0 0 0 0 0 0 0 0 0 0 0 0 0 0 0 0 0 0 0 0 0 0 0 0 0 0
0 0 0 0 0 0 0 0 0 0 0 0 0 0 0 0 0 0 0 0 0 0 0 0 0 0 0 0 0 0 0 0 0 0 0 0 0 0 0 0 0 0 0 0
0 0 0 0 0 0 0 0 0 0 0 0 0 0 0 0 0 0 0 0 0 0 0 0 0 0 0 0 0 0 0 0 0 0 0 0 0 0 0 0 0 0 0 0
0 0 0 0 0 0 0 0 0 0 0 0 0 0 0 0 0 0 0 0 0 0 0 0 0 0 0 0 0 0 0 0 0 0 0 0 0 0 0 0 0 0 0 0
0 0 0 0 0 0 0 0 0 0 0 0 0 0 0 0 0 0 0 0 0 0 0 0 0 0 0 0 0 0 0 0 0 0 0 0 0 0 0 0 0 0 0 0
0 0 0 0 0 0 0 0 0 0 0 0 0 0 0 0 0 0 0 0 0 0 0 0 0 0 0 0 0 0 -0 0 0 0 0 0 0 0 0 0 0 0 0 0
0 0 0 0 0 0 0 0 0 0 0 0 0 0 0 0 0 0 0 0 0 0 0 0 0 0 0 0 -0 -0 -0 -0 0 0 -0 -0 0 0 0 0 0 0 0 0
0 0 0 0 0 0 0 0 0 0 0 0 0 0 0 0 0 0 0 0 0 0 0 0 0 0 -0 -0 -0 -0 -0 -0 -0 0 0 0 0 0 0 0 0 0 0 0
0 0 -0 0 0 0 0 0 0 0 0 0 0 0 0 0 0 0 0 0 0 0 0 0 0 0 -0 -0 0 0 -0 0 0 0 0 0 0 0 0 0 0 0 0 0
0 0 0 0 0 0 0 0 0 0 0 0 0 0 0 0 0 0 0 0 0 0 0 0 -0 -0 0 0 -0 0 0 0 -0 0 0 0 0 0 0 0 0 0 0 0
0 0 0 0 0 0 0 0 0 0 0 0 0 0 0 0 0 0 0 0 0 0 0 -0 -0 0 -0 -0 -0 -0 -0 -0 -0 -0 -0 0 0 0 0 0 0 0 0 0
Wind_Speed_500mb
15 12 10 12 13 17 14 12 14 14 21 29 39 35 60 67 52 42 36 31 27 24 21 17 16 27 28 19 23 25 31 36 41 36 33 35 30 30 33 34 40 41 36 35
11 6 13 10 12 16 10 9 9 9 15 11 25 35 45 69 64 54 46 40 35 31 27 23 17 17 16 10 9 14 10 13 11 15 17 22 27 28 28 32 34 34 33 33
17 7 4 13 15 16 10 9 16 13 25 21 13 33 59 70 68 64 56 49 44 38 33 26 21 14 12 13 12 10 12 10 8 11 14 18 22 27 28 32 36 34 35 34
7 5 9 17 6 5 14 12 20 3 16 45 68 78 60 72 74 68 61 57 49 40 35 32 26 22 18 17 16 14 13 12 12 14 17 20 22 23 24 26 26 25 30 31
11 10 11 6 8 12 14 21 17 19 8 17 41 38 28 69 68 63 65 60 49 39 35 33 28 24 19 16 17 17 15 18 19 20 23 26 28 28 28 26 28 30 31 33
7 11 16 18 0 6 9 14 16 27 24 35 49 18 17 63 57 63 55 51 47 40 34 32 29 26 21 21 19 18 16 14 17 20 24 28 32 34 37 39 40 41 42 43
5 6 14 12 4 10 9 19 18 46 52 60 26 15 44 57 47 53 49 43 38 33 27 25 19 14 13 12 9 6 8 16 26 34 40 44 44 44 47 49 53 55 58 60
6 5 13 11 8 18 13 4 15 24 46 48 27 33 60 59 55 52 51 45 36 31 26 22 18 12 11 11 12 16 25 32 36 38 40 44 50 53 55 58 62 64 65 69
12 10 9 22 23 15 9 25 25 36 38 37 38 52 58 61 56 53 48 43 39 33 31 26 20 15 9 14 23 28 29 31 35 42 49 51 48 49 51 53 57 60 62 66
3 5 14 21 4 19 38 47 45 47 45 37 50 52 53 51 53 49 43 42 39 37 31 24 18 10 17 26 33 34 35 41 47 53 56 57 54 54 56 57 58 59 60 61
4 11 6 11 11 23 33 34 38 38 38 40 42 46 39 47 43 40 40 42 36 32 29 22 16 19 27 34 36 39 45 52 57 58 60 60 59 60 60 62 60 63 67 68
9 5 2 10 15 24 25 20 18 28 32 33 19 17 28 27 13 25 37 43 36 42 35 28 32 32 34 34 38 47 54 60 62 62 60 59 56 54 48 49 53 59 65 67
5 17 12 9 12 17 15 18 26 20 21 26 25 15 12 34 42 44 38 40 42 40 35 34 31 29 33 40 50 57 57 51 45 43 41 46 51 56 62 59 56 58 59 62
7 17 12 13 12 11 10 15 20 12 10 17 21 26 36 44 43 44 44 37 31 29 27 26 29 33 39 47 52 51 49 49 46 49 49 50 56 58 64 76 85 88 83 85
6 4 9 20 22 21 29 31 29 23 23 28 32 31 37 38 40 39 31 25 23 23 24 28 33 39 44 46 44 43 45 47 48 48 50 53 60 69 77 88 94 100 105 108
4 11 12 18 22 24 30 30 27 27 28 31 32 31 29 29 27 23 19 18 20 22 26 33 41 38 39 40 38 39 40 41 45 51 58 66 74 83 89 96 100 103 92 80
23 23 22 31 35 37 34 32 28 26 23 21 22 23 20 16 12 11 14 20 23 27 32 36 35 35 38 38 39 41 45 46 52 62 70 79 84 93 93 84 77 76 77 74
38 42 43 30 38 37 37 29 19 19 22 20 15 9 6 10 14 18 17 20 28 35 35 36 39 36 36 37 40 44 48 56 65 72 80 85 85 68 61 62 66 71 75 73
23 28 28 24 23 22 22 22 23 21 16 10 8 12 17 19 18 19 25 32 36 38 35 38 34 31 30 35 42 48 57 66 73 80 82 72 56 55 59 62 64 66 65 65
11 16 18 23 24 19 24 22 15 8 5 3 6 9 11 16 25 31 35 35 32 34 36 34 31 25 30 39 46 55 63 70 77 75 57 48 48 50 51 53 60 60 60 60
20 24 24 23 19 12 7 8 7 2 3 6 9 13 15 21 23 23 24 25 25 26 22 17 20 25 34 44 50 59 67 68 63 50 46 43 44 45 48 54 58 57 58 56
15 11 11 13 6 6 9 6 5 7 12 14 13 15 17 17 15 11 18 24 25 18 14 15 23 32 38 44 55 63 67 63 48 43 38 37 38 42 46 51 54 56 55 53
16 14 8 8 5 9 8 9 12 11 14 17 19 17 16 16 17 17 19 21 12 10 12 18 26 30 37 47 60 69 66 57 41 35 33 33 34 40 45 47 50 53 52 47
14 13 12 7 10 10 12 15 17 14 18 22 23 21 21 21 20 19 21 16 13 12 12 19 24 31 40 52 56 62 62 51 39 34 30 28 30 35 39 44 48 50 48 44
10 7 4 7 14 19 19 17 14 15 19 25 25 25 24 20 20 19 16 12 12 11 12 15 27 31 42 45 52 56 54 45 37 33 31 30 29 31 36 41 46 50 46 51
3 7 11 15 14 12 12 14 18 23 26 26 23 21 16 11 13 16 15 21 18 7 15 23 24 29 31 38 45 48 47 49 45 40 36 34 33 33 37 42 49 55 57 58
7 4 8 7 13 20 22 24 25 24 23 22 21 22 23 23 23 18 20 21 5 10 17 14 20 22 25 30 36 41 42 43 46 48 48 51 53 52 48 47 50 51 53 54
Wind_Direction_500mb
242 217 187 191 182 164 172 178 156 224 193 205 196 193 198 196 191 182 182 182 178 174 165 164 202 226 253 262 236 240 240 251 271 292 285 272 258 267 268 267 264 261 266 279
255 198 200 225 206 196 210 146 275 163 241 236 195 184 189 196 189 189 190 186 179 179 180 176 186 210 244 277 226 216 234 269 279 282 283 274 273 267 268 266 267 265 270 275
232 191 140 315 206 200 200 188 150 163 217 152 166 193 195 193 190 194 192 189 185 177 178 178 173 186 172 167 181 200 224 229 261 271 276 281 285 283 277 270 269 273 276 276
163 93 208 236 305 194 202 219 212 224 179 178 190 200 199 195 196 198 196 193 193 188 186 183 180 175 178 179 192 210 220 244 247 261 275 283 288 289 287 276 270 269 278 284
141 183 275 258 188 163 170 267 206 189 132 151 162 156 193 202 205 204 201 197 196 196 199 198 193 190 191 199 206 208 217 238 254 269 277 285 289 288 286 280 269 270 272 273
137 156 210 226 323 315 147 273 212 182 159 151 145 159 220 203 205 207 202 198 199 205 212 211 205 203 209 202 211 223 238 265 279 286 287 290 289 288 287 286 284 280 278 279
152 197 285 243 204 119 130 247 220 198 182 166 177 202 181 178 187 192 191 191 190 185 184 186 188 188 209 222 236 261 299 308 309 307 306 305 302 296 290 287 285 283 281 280
102 106 273 179 136 157 218 122 186 196 172 167 161 144 161 165 167 169 169 166 170 169 175 179 178 183 225 237 262 287 301 306 309 309 305 300 297 295 293 291 289 287 284 280
175 215 294 303 269 267 181 143 141 153 149 148 137 145 150 151 159 166 171 172 179 188 187 186 189 197 221 290 305 306 305 306 307 307 308 307 303 298 297 295 293 291 291 290
36 307 314 335 247 139 129 111 113 117 128 139 139 147 151 158 166 173 180 189 195 199 200 199 204 240 287 297 301 299 299 299 299 301 302 302 298 295 294 293 293 292 294 295
263 264 35 16 108 125 121 113 113 118 122 130 139 155 164 171 179 189 198 198 203 220 214 206 228 262 275 287 286 289 293 295 297 297 296 295 293 291 290 288 288 291 291 291
219 267 109 175 152 136 129 115 120 128 136 145 141 165 182 177 187 260 228 204 206 213 227 245 255 264 271 273 280 286 289 293 297 297 297 296 297 299 297 297 292 283 282 283
286 140 77 152 147 158 147 157 157 173 167 169 174 161 238 229 212 217 213 210 213 229 248 257 259 260 275 285 290 293 295 297 296 298 301 302 303 305 306 305 302 301 299 294
100 140 93 136 156 173 178 178 172 184 239 219 212 211 227 223 213 203 206 218 235 247 251 260 273 284 290 293 295 296 298 296 296 299 300 300 303 304 304 306 306 304 303 303
158 208 178 178 193 211 197 194 200 224 221 210 215 228 221 215 211 213 221 231 240 257 276 289 292 297 297 295 296 297 296 297 295 297 298 301 304 304 305 305 304 302 302 301
198 270 244 202 191 194 193 197 215 214 222 229 232 225 218 210 205 209 230 252 278 292 295 297 298 303 296 301 300 301 302 300 300 303 304 306 307 307 306 303 303 301 302 301
276 266 252 239 221 201 203 213 234 237 210 196 181 175 180 194 218 256 283 294 298 301 305 305 303 295 297 298 302 305 305 307 306 308 310 309 309 308 306 307 309 308 305 303
256 257 254 265 236 230 233 235 226 202 175 165 167 186 253 295 307 309 309 301 300 303 306 299 299 294 294 294 303 309 309 310 311 311 311 310 311 315 314 313 308 308 309 306
264 250 250 260 248 212 188 165 156 159 164 185 231 270 287 297 297 292 291 294 299 300 300 297 297 297 293 304 310 312 313 314 315 315 311 312 314 315 316 315 314 313 311 310
155 159 155 146 140 152 155 158 164 205 224 264 296 308 310 297 293 294 295 298 301 297 297 298 299 300 308 313 315 318 319 318 319 317 316 316 315 319 323 326 327 320 317 314
128 123 126 133 143 151 166 150 144 124 287 281 274 282 297 300 294 296 300 308 307 306 304 302 307 313 318 321 324 326 328 327 328 322 318 318 320 326 331 332 332 328 322 314
194 185 190 177 181 171 157 168 220 269 278 275 255 273 307 302 299 293 314 324 323 316 308 317 317 321 326 331 335 339 340 339 332 324 323 328 333 335 337 339 339 337 333 328
232 235 251 209 203 174 205 244 263 261 270 255 251 273 291 284 290 291 315 329 340 334 304 305 316 319 333 342 347 352 345 344 335 335 336 343 346 348 346 346 348 346 350 351
87 114 134 182 225 244 257 249 251 260 245 249 261 277 290 285 272 287 311 314 282 270 288 310 316 335 348 355 351 351 350 351 350 347 348 351 356 355 357 359 0 3 8 7
111 116 155 248 254 274 268 249 241 238 261 275 280 285 287 279 278 289 298 272 234 256 296 310 322 348 359 354 357 355 355 2 4 2 3 9 11 14 16 20 24 25 27 35
75 34 357 320 296 278 266 263 266 275 282 282 277 273 261 264 287 288 272 219 215 281 305 314 325 360 352 359 359 2 9 19 25 29 29 28 28 31 35 41 48 51 52 57
81 28 360 306 311 304 286 281 284 286 282 275 268 266 270 280 282 268 243 209 151 304 322 345 357 355 3 1 4 14 20 29 36 40 43 48 50 52 54 58 60 64 68 70
Wind_Speed_850mb
15 12 10 12 13 17 14 12 14 14 21 29 39 35 60 67 52 42 36 31 27 24 21 17 16 27 28 19 23 25 31 36 41 36 33 35 30 30 33 34 40 41 36 35
11 6 13 10 12 16 10 9 9 9 15 11 25 35 45 69 64 54 46 40 35 31 27 23 17 17 16 10 9 14 10 13 11 15 17 22 27 28 28 32 34 34 33 33
17 7 4 13 15 16 10 9 16 13 25 21 13 33 59 70 68 64 56 49 44 38 33 26 21 14 12 13 12 10 12 10 8 11 14 18 22 27 28 32 36 34 35 34
7 5 9 17 6 5 14 12 20 3 16 45 68 78 60 72 74 68 61 57 49 40 35 32 26 22 18 17 16 14 13 12 12 14 17 20 22 23 24 26 26 25 30 31
11 10 11 6 8 12 14 21 17 19 8 17 41 38 28 69 68 63 65 60 49 39 35 33 28 24 19 16 17 17 15 18 19 20 23 26 28 28 28 26 28 30 31 33
7 11 16 18 0 6 9 14 16 27 24 35 49 18 17 63 57 63 55 51 47 40 34 32 29 26 21 21 19 18 16 14 17 20 24 28 32 34 37 39 40 41 42 43
5 6 14 12 4 10 9 19 18 46 52 60 26 15 44 57 47 53 49 43 38 33 27 25 19 14 13 12 9 6 8 16 26 34 40 44 44 44 47 49 53 55 58 60
6 5 13 11 8 18 13 4 15 24 46 48 27 33 60 59 55 52 51 45 36 31 26 22 18 12 11 11 12 16 25 32 36 38 40 44 50 53 55 58 62 64 65 69
12 10 9 22 23 15 9 25 25 36 38 37 38 52 58 61 56 53 48 43 39 33 31 26 20 15 9 14 23 28 29 31 35 42 49 51 48 49 51 53 57 60 62 66
3 5 14 21 4 19 38 47 45 47 45 37 50 52 53 51 53 49 43 42 39 37 31 24 18 10 17 26 33 34 35 41 47 53 56 57 54 54 56 57 58 59 60 61
4 11 6 11 11 23 33 34 38 38 38 40 42 46 39 47 43 40 40 42 36 32 29 22 16 19 27 34 36 39 45 52 57 58 60 60 59 60 60 62 60 63 67 68
9 5 2 10 15 24 25 20 18 28 32 33 19 17 28 27 13 25 37 43 36 42 35 28 32 32 34 34 38 47 54 60 62 62 60 59 56 54 48 49 53 59 65 67
5 17 12 9 12 17 15 18 26 20 21 26 25 15 12 34 42 44 38 40 42 40 35 34 31 29 33 40 50 57 57 51 45 43 41 46 51 56 62 59 56 58 59 62
7 17 12 13 12 11 10 15 20 12 10 17 21 26 36 44 43 44 44 37 31 29 27 26 29 33 39 47 52 51 49 49 46 49 49 50 56 58 64 76 85 88 83 85
6 4 9 20 22 21 29 31 29 23 23 28 32 31 37 38 40 39 31 25 23 23 24 28 33 39 44 46 44 43 45 47 48 48 50 53 60 69 77 88 94 100 105 108
4 11 12 18 22 24 30 30 27 27 28 31 32 31 29 29 27 23 19 18 20 22 26 33 41 38 39 40 38 39 40 41 45 51 58 66 74 83 89 96 100 103 92 80
23 23 22 31 35 37 34 32 28 26 23 21 22 23 20 16 12 11 14 20 23 27 32 36 35 35 38 38 39 41 45 46 52 62 70 79 84 93 93 84 77 76 77 74
38 42 43 30 38 37 37 29 19 19 22 20 15 9 6 10 14 18 17 20 28 35 35 36 39 36 36 37 40 44 48 56 65 72 80 85 85 68 61 62 66 71 75 73
23 28 28 24 23 22 22 22 23 21 16 10 8 12 17 19 18 19 25 32 36 38 35 38 34 31 30 35 42 48 57 66 73 80 82 72 56 55 59 62 64 66 65 65
11 16 18 23 24 19 24 22 15 8 5 3 6 9 11 16 25 31 35 35 32 34 36 34 31 25 30 39 46 55 63 70 77 75 57 48 48 50 51 53 60 60 60 60
20 24 24 23 19 12 7 8 7 2 3 6 9 13 15 21 23 23 24 25 25 26 22 17 20 25 34 44 50 59 67 68 63 50 46 43 44 45 48 54 58 57 58 56
15 11 11 13 6 6 9 6 5 7 12 14 13 15 17 17 15 11 18 24 25 18 14 15 23 32 38 44 55 63 67 63 48 43 38 37 38 42 46 51 54 56 55 53
16 14 8 8 5 9 8 9 12 11 14 17 19 17 16 16 17 17 19 21 12 10 12 18 26 30 37 47 60 69 66 57 41 35 33 33 34 40 45 47 50 53 52 47
14 13 12 7 10 10 12 15 17 14 18 22 23 21 21 21 20 19 21 16 13 12 12 19 24 31 40 52 56 62 62 51 39 34 30 28 30 35 39 44 48 50 48 44
10 7 4 7 14 19 19 17 14 15 19 25 25 25 24 20 20 19 16 12 12 11 12 15 27 31 42 45 52 56 54 45 37 33 31 30 29 31 36 41 46 50 46 51
3 7 11 15 14 12 12 14 18 23 26 26 23 21 16 11 13 16 15 21 18 7 15 23 24 29 31 38 45 48 47 49 45 40 36 34 33 33 37 42 49 55 57 58
7 4 8 7 13 20 22 24 25 24 23 22 21 22 23 23 23 18 20 21 5 10 17 14 20 22 25 30 36 41 42 43 46 48 48 51 53 52 48 47 50 51 53 54
Wind_Direction_850mb
242 217 187 191 182 164 172 178 156 224 193 205 196 193 198 196 191 182 182 182 178 174 165 164 202 226 253 262 236 240 240 251 271 292 285 272 258 267 268 267 264 261 266 279
255 198 200 225 206 196 210 146 275 163 241 236 195 184 189 196 189 189 190 186 179 179 180 176 186 210 244 277 226 216 234 269 279 282 283 274 273 267 268 266 267 265 270 275
232 191 140 315 206 200 200 188 150 163 217 152 166 193 195 193 190 194 192 189 185 177 178 178 173 186 172 167 181 200 224 229 261 271 276 281 285 283 277 270 269 273 276 276
163 93 208 236 305 194 202 219 212 224 179 178 190 200 199 195 196 198 196 193 193 188 186 183 180 175 178 179 192 210 220 244 247 261 275 283 288 289 287 276 270 269 278 284
141 183 275 258 188 163 170 267 206 189 132 151 162 156 193 202 205 204 201 197 196 196 199 198 193 190 191 199 206 208 217 238 254 269 277 285 289 288 286 280 269 270 272 273
137 156 210 226 323 315 147 273 212 182 159 151 145 159 220 203 205 207 202 198 199 205 212 211 205 203 209 202 211 223 238 265 279 286 287 290 289 288 287 286 284 280 278 279
152 197 285 243 204 119 130 247 220 198 182 166 177 202 181 178 187 192 191 191 190 185 184 186 188 188 209 222 236 261 299 308 309 307 306 305 302 296 290 287 285 283 281 280
102 106 273 179 136 157 218 122 186 196 172 167 161 144 161 165 167 169 169 166 170 169 175 179 178 183 225 237 262 287 301 306 309 309 305 300 297 295 293 291 289 287 284 280
175 215 294 303 269 267 181 143 141 153 149 148 137 145 150 151 159 166 171 172 179 188 187 186 189 197 221 290 305 306 305 306 307 307 308 307 303 298 297 295 293 291 291 290
36 307 314 335 247 139 129 111 113 117 128 139 139 147 151 158 166 173 180 189 195 199 200 199 204 240 287 297 301 299 299 299 299 301 302 302 298 295 294 293 293 292 294 295
263 264 35 16 108 125 121 113 113 118 122 130 139 155 164 171 179 189 198 198 203 220 214 206 228 262 275 287 286 289 293 295 297 297 296 295 293 291 290 288 288 291 291 291
219 267 109 175 152 136 129 115 120 128 136 145 141 165 182 177 187 260 228 204 206 213 227 245 255 264 271 273 280 286 289 293 297 297 297 296 297 299 297 297 292 283 282 283
286 140 77 152 147 158 147 157 157 173 167 169 174 161 238 229 212 217 213 210 213 229 248 257 259 260 275 285 290 293 295 297 296 298 301 302 303 305 306 305 302 301 299 294
100 140 93 136 156 173 178 178 172 184 239 219 212 211 227 223 213 203 206 218 235 247 251 260 273 284 290 293 295 296 298 296 296 299 300 300 303 304 304 306 306 304 303 303
158 208 178 178 193 211 197 194 200 224 221 210 215 228 221 215 211 213 221 231 240 257 276 289 292 297 297 295 296 297 296 297 295 297 298 301 304 304 305 305 304 302 302 301
198 270 244 202 191 194 193 197 215 214 222 229 232 225 218 210 205 209 230 252 278 292 295 297 298 303 296 301 300 301 302 300 300 303 304 306 307 307 306 303 303 301 302 301
276 266 252 239 221 201 203 213 234 237 210 196 181 175 180 194 218 256 283 294 298 301 305 305 303 295 297 298 302 305 305 307 306 308 310 309 309 308 306 307 309 308 305 303
256 257 254 265 236 230 233 235 226 202 175 165 167 186 253 295 307 309 309 301 300 303 306 299 299 294 294 294 303 309 309 310 311 311 311 310 311 315 314 313 308 308 309 306
264 250 250 260 248 212 188 165 156 159 164 185 231 270 287 297 297 292 291 294 299 300 300 297 297 297 293 304 310 312 313 314 315 315 311 312 314 315 316 315 314 313 311 310
155 159 155 146 140 152 155 158 164 205 224 264 296 308 310 297 293 294 295 298 301 297 297 298 299 300 308 313 315 318 319 318 319 317 316 316 315 319 323 326 327 320 317 314
128 123 126 133 143 151 166 150 144 124 287 281 274 282 297 300 294 296 300 308 307 306 304 302 307 313 318 321 324 326 328 327 328 322 318 318 320 326 331 332 332 328 322 314
194 185 190 177 181 171 157 168 220 269 278 275 255 273 307 302 299 293 314 324 323 316 308 317 317 321 326 331 335 339 340 339 332 324 323 328 333 335 337 339 339 337 333 328
232 235 251 209 203 174 205 244 263 261 270 255 251 273 291 284 290 291 315 329 340 334 304 305 316 319 333 342 347 352 345 344 335 335 336 343 346 348 346 346 348 346 350 351
87 114 134 182 225 244 257 249 251 260 245 249 261 277 290 285 272 287 311 314 282 270 288 310 316 335 348 355 351 351 350 351 350 347 348 351 356 355 357 359 0 3 8 7
111 116 155 248 254 274 268 249 241 238 261 275 280 285 287 279 278 289 298 272 234 256 296 310 322 348 359 354 357 355 355 2 4 2 3 9 11 14 16 20 24 25 27 35
75 34 357 320 296 278 266 263 266 275 282 282 277 273 261 264 287 288 272 219 215 281 305 314 325 360 352 359 359 2 9 19 25 29 29 28 28 31 35 41 48 51 52 57
81 28 360 306 311 304 286 281 284 286 282 275 268 266 270 280 282 268 243 209 151 304 322 345 357 355 3 1 4 14 20 29 36 40 43 48 50 52 54 58 60 64 68 70